Temperature
15 15 15 16 16 16 18 20 22 22 23 22 22 22 22 21 21 19 17 17 17 17 17 17 17 16 16 16 16 16 16 16 16 16 16 16 16 16 16 16 16 16 16 16 16 16 16 16 16
14 14 15 16 16 17 18 20 21 21 21 21 21 21 21 20 18 17 16 16 16 16 16 16 16 16 16 16 16 16 16 16 16 16 16 16 16 16 16 15 15 15 15 15 15 15 15 16 16
14 14 15 16 16 17 19 20 20 20 20 20 20 20 20 18 17 16 16 16 15 15 16 16 16 16 16 16 16 16 16 16 16 16 16 15 15 15 15 15 15 15 15 15 15 15 15 15 15
13 14 15 15 17 18 19 20 20 19 20 20 20 19 18 17 16 16 15 15 15 15 15 16 16 16 16 16 16 16 15 15 15 15 15 15 15 15 15 15 15 15 15 15 15 15 15 15 15
13 15 15 15 17 19 19 20 20 19 19 19 19 19 17 16 16 15 15 15 15 15 15 15 15 15 16 15 15 15 15 15 15 15 15 15 15 15 15 15 15 14 15 15 15 15 15 15 15
14 15 15 15 17 19 19 19 19 19 19 19 19 18 16 15 15 15 15 15 14 14 14 15 15 15 15 15 15 15 15 15 15 15 15 15 14 14 14 14 14 14 14 14 15 15 15 15 14
14 14 15 16 17 17 18 18 18 18 18 18 18 17 15 15 14 14 14 14 14 14 14 14 14 15 15 15 15 15 15 15 15 14 14 14 14 14 14 14 14 14 14 14 14 14 14 14 14
13 14 15 16 16 17 18 17 17 17 17 17 17 17 15 14 14 14 14 14 14 14 14 14 14 14 14 14 14 14 14 14 14 14 14 14 14 14 14 14 14 14 14 14 14 14 14 14 14
13 13 14 15 16 16 17 16 16 16 16 16 16 15 15 14 14 13 13 13 13 13 13 13 14 14 14 14 14 14 14 14 14 14 14 14 14 13 14 14 14 14 14 14 14 14 14 14 14
13 12 14 15 15 15 16 15 15 15 15 15 15 15 14 14 13 13 13 13 13 13 13 13 13 13 13 13 13 14 13 13 13 13 13 13 13 13 13 13 13 13 13 13 14 14 13 13 13
14 13 14 14 14 14 15 15 15 14 14 15 14 14 14 13 13 13 13 13 13 12 12 12 13 13 13 13 13 13 13 13 13 13 13 13 13 13 13 13 13 13 13 13 13 13 13 13 13
14 14 14 14 13 14 14 14 14 14 14 14 14 14 13 13 13 13 13 12 12 12 12 12 12 13 13 13 13 12 12 12 13 13 13 13 13 13 13 13 13 13 13 13 13 13 13 12 12
13 13 13 13 13 13 13 13 13 13 13 13 13 13 13 13 12 12 12 12 12 12 12 12 12 12 12 12 12 12 12 12 12 12 12 12 13 12 12 12 12 12 12 12 12 12 12 12 12
13 13 13 13 13 13 13 13 13 13 13 13 13 13 13 12 12 12 12 12 12 11 11 12 12 12 12 12 12 12 12 12 12 12 12 12 12 12 12 12 12 12 12 12 12 12 12 12 12
13 12 13 13 13 13 13 12 13 13 13 13 13 12 12 12 12 12 11 11 11 11 11 11 11 11 11 11 11 11 12 12 12 12 12 12 12 12 12 12 12 12 12 12 12 12 12 11 11
13 12 12 13 13 13 12 11 13 13 13 13 13 12 12 12 11 11 11 11 11 11 11 11 11 11 11 11 11 11 11 11 11 11 12 12 12 12 12 12 12 12 12 12 11 11 11 11 11
12 12 12 13 13 13 12 11 13 13 13 13 13 12 12 11 11 11 11 11 11 11 11 11 11 11 11 10 10 11 11 11 11 11 11 11 11 11 11 11 11 11 11 11 11 11 11 11 11
11 12 13 12 13 13 12 12 13 13 13 13 13 12 12 11 11 10 10 10 10 10 10 10 10 10 10 10 10 10 10 10 11 11 11 11 11 11 11 11 11 11 11 11 11 11 10 10 10
13 12 12 13 13 12 12 12 13 13 13 13 12 12 12 11 11 10 10 10 10 10 10 10 10 10 10 10 10 10 10 10 10 10 11 11 11 11 11 11 10 10 10 10 10 10 10 10 10
12 12 12 12 13 12 11 12 13 13 12 12 12 12 11 11 10 10 9 9 9 9 10 9 10 10 10 10 9 9 10 10 10 10 10 10 10 10 10 10 10 10 10 10 9 9 9 9 9
12 11 11 11 12 12 12 11 12 13 13 12 12 12 11 11 10 10 9 9 9 9 9 9 9 9 9 9 9 9 9 9 9 9 10 10 10 10 10 10 10 10 9 9 9 9 9 9 8
11 11 11 11 10 10 11 9 12 12 11 12 11 11 11 10 10 9 9 9 9 9 9 9 9 9 9 9 9 9 9 9 9 9 9 9 9 9 9 9 9 9 9 9 9 8 8 8 8
10 11 10 10 10 10 10 10 10 12 11 11 11 11 10 10 10 9 9 9 8 8 9 9 9 9 9 9 9 8 8 8 8 8 8 8 8 8 9 9 9 9 8 8 8 8 8 8 7
10 10 10 10 9 8 10 10 10 11 11 11 11 11 10 10 9 9 9 8 8 8 8 8 9 9 9 8 8 8 8 8 8 8 8 8 8 8 8 8 8 8 8 8 8 8 7 7 7
10 9 8 8 8 9 11 10 10 11 12 11 11 11 10 9 9 9 8 8 8 8 8 8 8 8 8 8 8 8 8 8 8 8 8 8 8 7 7 7 7 7 7 7 7 7 7 7 6
9 9 8 8 9 9 10 9 10 11 12 12 11 11 10 9 9 8 8 8 8 8 8 8 8 8 8 8 8 8 7 7 7 7 7 7 7 7 7 7 7 7 7 7 7 7 6 6 6
9 8 9 8 8 8 9 11 11 11 10 10 11 10 10 9 9 8 8 8 8 8 8 8 8 8 8 8 8 7 7 7 7 7 7 7 7 6 6 6 6 6 6 6 6 6 6 6 6
9 9 8 7 8 8 10 11 10 9 10 10 9 10 9 9 9 8 8 8 8 8 8 8 8 8 8 7 7 7 7 7 7 6 7 6 6 6 6 6 6 6 6 6 6 5 5 5 5
8 8 8 8 8 8 8 9 11 10 10 9 9 10 9 9 8 8 8 8 7 7 7 7 7 7 7 7 7 7 7 7 6 6 6 6 6 6 6 6 6 5 5 5 5 5 5 5 4
9 9 8 7 7 8 7 8 11 10 10 10 10 9 9 8 8 8 7 7 7 7 7 7 7 7 7 7 6 6 6 6 6 6 6 6 6 5 5 5 5 5 5 5 5 4 4 4 4
Wind_Speed
14 12 5 2 3 5 8 6 5 2 1 3 5 5 4 5 3 6 5 8 11 13 15 15 14 13 12 11 11 10 9 9 9 8 8 7 7 7 7 7 7 7 7 7 7 6 6 6 6
12 7 3 3 4 6 7 6 5 1 2 3 4 4 3 4 5 7 5 7 9 12 14 14 14 12 12 11 10 9 9 8 8 8 7 7 7 7 6 6 6 6 6 6 6 6 6 5 5
10 5 3 3 5 6 4 2 1 4 4 2 2 4 4 4 4 4 5 6 8 10 13 13 13 12 11 11 10 9 8 8 8 7 7 7 6 6 6 6 6 6 5 5 5 5 4 4 4
4 3 4 5 9 7 5 3 2 2 2 2 2 2 3 5 4 5 6 6 7 9 13 13 13 11 11 10 10 9 8 8 7 7 6 6 6 6 6 6 5 5 5 4 4 4 4 4 3
3 3 5 6 10 7 5 3 3 2 1 1 1 0 2 4 6 5 6 6 7 8 11 12 12 11 10 9 9 9 8 7 7 6 6 6 6 6 5 5 5 5 4 3 3 3 3 3 2
3 3 4 7 8 5 3 2 2 3 2 1 2 1 1 3 5 3 4 5 7 8 10 12 11 11 10 9 9 8 8 7 7 7 6 6 6 6 6 6 6 5 4 4 3 3 3 2 2
3 4 5 7 6 5 3 3 2 3 3 2 3 1 1 3 4 3 4 5 6 7 7 9 10 11 10 9 9 8 8 8 7 7 6 6 5 6 6 6 5 4 3 3 3 3 3 2 2
4 3 5 6 6 5 2 2 3 5 4 3 4 2 2 3 4 3 4 5 5 5 5 6 7 8 9 9 9 9 9 8 7 7 6 5 5 5 6 6 5 4 3 3 2 2 2 3 4
3 3 5 4 4 4 2 3 3 6 4 4 2 3 1 5 4 3 3 3 3 4 3 4 5 6 7 8 8 8 8 8 7 6 6 5 4 4 5 5 5 3 2 1 1 2 3 4 5
2 3 4 4 6 5 3 3 2 3 4 4 2 2 4 4 4 5 4 4 4 4 3 3 4 4 5 6 7 7 6 6 5 5 4 2 3 3 4 4 4 3 2 1 2 4 5 5 5
2 3 3 5 7 5 4 4 3 3 5 5 3 1 2 4 4 5 4 4 4 4 3 3 3 4 4 4 4 4 4 4 4 4 3 3 3 2 3 3 2 1 1 1 3 4 4 3 3
3 4 4 4 6 5 5 4 4 5 5 5 3 2 4 5 5 5 4 4 4 5 3 4 3 3 4 4 3 3 3 3 4 4 3 3 2 2 2 2 2 1 2 2 3 4 4 4 4
4 4 4 4 4 5 5 5 6 6 5 4 2 1 4 5 5 4 4 4 5 5 4 3 3 3 4 3 2 3 3 3 4 4 4 4 2 2 2 2 3 3 3 2 3 3 3 4 4
2 3 5 6 4 4 5 6 6 7 3 3 3 3 4 4 4 4 5 4 4 4 4 3 3 4 4 3 2 3 3 3 4 4 4 4 4 3 2 2 2 3 3 3 3 3 2 2 2
4 4 5 5 3 2 4 6 5 4 2 4 4 3 3 4 4 4 4 5 4 4 4 4 4 4 4 3 3 4 3 3 3 3 4 4 4 3 2 1 1 2 3 3 3 3 2 2 2
5 4 4 2 2 2 2 6 3 1 2 4 4 3 3 4 4 4 5 4 4 5 5 4 3 4 4 3 3 3 3 4 3 4 4 4 4 4 2 2 1 3 3 3 1 2 2 2 2
2 4 5 3 2 1 3 6 4 1 2 3 3 3 4 5 5 5 5 5 4 5 5 4 4 4 4 3 3 3 3 3 3 4 4 4 4 4 3 2 2 3 2 2 2 2 2 1 2
4 5 5 4 2 2 4 7 4 1 3 2 2 3 4 5 5 6 6 6 5 5 5 5 4 3 4 3 2 2 2 2 3 3 3 3 3 4 3 2 3 3 2 2 2 1 2 1 2
6 6 7 5 3 4 5 8 6 3 3 3 2 3 4 5 5 6 6 6 6 5 5 4 4 3 2 2 2 2 1 1 1 2 3 3 3 3 2 1 2 2 2 2 2 2 2 1 2
7 7 6 4 4 5 6 9 7 4 4 3 3 3 4 5 6 6 6 6 5 4 4 4 4 3 2 2 2 1 2 1 1 1 2 2 2 3 2 2 1 1 1 2 2 2 1 1 1
5 5 6 6 7 5 5 6 4 3 4 4 2 2 3 5 6 6 6 5 5 4 4 3 3 3 2 3 2 2 2 1 1 1 1 1 1 2 2 2 2 2 1 1 1 1 1 1 1
4 5 7 7 6 4 3 4 4 4 5 5 5 4 3 4 4 5 6 6 5 4 4 3 3 3 3 3 3 3 2 1 1 1 1 0 0 1 1 1 1 1 1 1 1 1 1 1 2
3 6 7 7 6 5 4 3 5 3 3 4 5 5 4 4 5 5 5 5 5 4 4 3 3 3 3 3 3 2 1 1 1 1 1 0 0 0 0 1 1 1 1 1 1 1 1 1 2
4 6 6 5 2 3 5 4 4 2 2 3 4 5 5 4 4 5 5 5 4 5 4 3 3 3 3 2 2 2 2 2 1 1 1 1 1 1 1 1 1 1 1 1 1 1 2 1 1
3 2 2 2 2 4 1 2 4 1 2 3 5 5 5 5 5 5 6 5 5 5 5 4 3 2 2 2 2 2 2 2 2 2 2 2 1 1 1 1 1 1 1 1 1 1 1 2 2
3 1 0 2 3 3 1 4 2 4 4 4 5 5 5 5 4 5 5 5 5 5 5 4 4 3 2 2 2 2 2 1 1 1 1 1 1 2 1 1 2 2 2 2 1 1 2 2 2
2 1 1 2 4 4 4 3 2 3 4 3 3 4 4 4 5 4 5 5 5 5 5 5 4 3 3 2 2 2 2 1 1 1 1 1 1 1 1 2 2 2 2 2 2 2 2 2 2
3 3 1 1 2 4 5 3 2 3 3 3 3 3 3 3 3 4 4 5 5 4 4 4 4 4 3 3 3 2 2 2 1 2 2 2 2 2 2 2 2 3 2 2 2 2 2 2 2
3 2 3 3 3 2 4 3 2 2 2 3 3 2 2 2 2 2 2 3 4 4 4 4 4 3 3 3 2 2 2 2 2 2 2 2 2 2 3 3 3 3 3 3 2 3 2 3 3
3 4 3 2 4 3 3 4 2 4 3 2 2 2 2 2 2 1 2 2 3 3 3 3 3 3 3 3 2 2 2 2 2 2 2 2 2 3 3 3 3 3 3 3 3 3 3 3 4
Wind_Direction
304 286 267 257 241 230 239 243 261 253 293 0 3 353 358 1 13 112 119 97 109 123 129 131 130 128 125 121 116 112 113 113 111 109 108 106 104 103 100 97 91 87 85 82 79 72 71 69 67
298 297 272 235 233 233 237 230 242 271 35 15 4 346 10 56 54 98 101 99 112 121 123 127 130 130 128 124 121 117 115 116 117 115 111 109 109 108 103 99 92 87 82 80 76 72 70 64 64
281 273 260 232 230 239 253 292 354 36 38 4 26 1 8 52 70 91 96 107 109 114 118 124 129 130 129 128 126 124 121 118 119 119 116 113 111 109 105 101 93 87 82 84 78 72 67 62 57
282 237 240 246 244 250 268 300 28 27 16 347 47 68 42 29 43 87 102 111 114 112 115 125 130 128 130 131 130 128 126 123 121 122 119 116 112 107 103 100 95 89 83 81 73 65 60 56 45
251 251 233 236 245 250 276 309 341 317 247 266 294 87 54 25 52 79 104 106 112 110 114 125 131 132 130 132 133 132 129 129 126 122 121 118 113 108 102 97 93 89 81 74 62 53 40 34 22
253 243 243 238 246 250 268 326 297 282 282 281 295 287 101 91 70 76 88 94 99 108 116 128 131 132 131 129 132 133 131 126 124 121 119 119 115 111 107 98 92 87 79 70 55 38 18 7 355
272 259 255 260 259 266 283 342 318 315 285 273 308 292 158 130 99 93 84 85 94 101 117 131 137 134 131 128 130 130 127 124 122 120 116 118 122 120 114 101 92 85 74 64 50 32 11 345 321
296 291 264 262 260 271 310 1 343 321 313 341 319 285 187 147 107 96 89 87 94 102 111 122 131 131 133 127 122 128 128 130 129 127 129 130 136 135 127 110 101 90 76 59 40 13 347 325 297
292 267 258 277 287 294 335 344 342 334 320 310 315 321 85 125 129 126 112 106 108 112 108 120 125 126 129 131 131 134 139 141 141 142 146 149 147 133 125 124 123 113 99 64 7 330 307 292 279
249 257 264 307 314 316 316 309 314 304 286 278 296 19 108 135 162 161 161 159 148 134 136 128 120 123 124 133 144 144 146 143 145 134 138 129 104 112 122 144 154 167 197 247 282 296 285 283 277
257 275 286 307 321 325 308 303 309 269 273 272 257 182 158 173 189 184 179 171 150 124 125 112 106 119 119 116 125 116 120 131 115 102 97 86 83 94 114 132 147 206 223 308 305 292 293 306 310
257 292 296 299 317 317 299 294 290 269 273 302 304 191 183 197 196 195 183 165 125 106 108 109 101 103 108 106 108 120 104 95 89 84 69 61 56 56 60 58 54 26 12 350 326 311 318 325 324
267 275 293 300 307 310 305 289 280 271 280 298 311 197 196 197 194 186 162 131 117 112 109 112 112 96 88 93 101 96 85 78 89 83 70 62 59 41 40 43 37 21 6 359 335 325 337 334 335
304 305 296 283 276 293 297 284 270 264 259 259 249 232 210 191 183 166 143 131 126 125 123 117 117 105 94 87 98 88 88 88 80 76 69 62 59 47 31 25 29 14 359 348 331 329 322 321 343
265 274 277 262 250 278 299 284 249 264 234 239 231 221 195 163 148 137 122 122 123 126 122 122 115 109 103 89 81 82 83 85 78 72 64 58 53 39 29 22 18 356 342 341 340 334 337 342 346
258 262 267 232 221 219 260 280 266 259 204 222 203 192 170 142 136 122 117 119 123 121 118 115 115 114 101 87 81 76 71 67 66 63 59 50 39 22 20 24 6 346 353 353 330 333 346 353 350
249 275 284 297 224 247 258 276 284 188 203 218 177 182 158 143 128 118 119 117 116 114 111 102 98 113 109 92 82 75 75 72 66 64 56 42 35 22 26 2 352 352 355 351 326 358 350 343 343
284 285 290 298 296 301 278 279 289 216 206 232 180 166 150 141 135 128 124 120 117 114 109 106 101 105 112 111 101 83 67 68 74 70 64 37 24 21 18 357 355 358 356 344 337 335 345 351 326
301 292 294 304 324 307 276 280 279 236 200 210 189 174 155 141 130 124 120 119 119 114 111 112 117 117 117 123 120 119 120 89 72 71 64 39 17 10 16 14 4 5 353 333 335 347 358 360 360
303 300 300 319 345 312 284 280 269 212 188 187 183 175 157 141 140 132 123 116 116 117 116 122 125 122 124 110 101 98 93 85 90 70 62 40 15 7 8 12 3 358 349 346 350 355 355 346 19
312 307 321 322 315 273 274 287 248 195 166 169 178 157 154 155 149 142 135 130 131 133 131 133 126 128 125 109 97 82 69 57 66 82 57 12 25 23 14 357 359 352 349 333 334 347 351 311 297
302 330 321 313 312 295 290 292 263 181 171 185 186 169 153 149 140 143 141 142 146 143 134 127 128 137 137 127 131 142 154 166 190 156 115 69 84 45 16 348 344 338 337 333 323 3 331 274 270
312 318 302 288 284 293 264 250 274 174 184 194 176 159 147 151 149 152 147 148 149 140 135 133 137 149 137 132 142 146 157 163 145 125 116 78 318 146 355 335 341 344 339 332 329 319 320 261 251
298 289 278 260 272 272 239 214 277 211 200 172 152 145 145 145 150 153 142 137 141 136 132 137 145 146 135 141 141 156 177 175 164 187 184 194 226 268 268 258 272 286 291 291 285 287 283 284 262
285 320 346 337 247 251 210 204 250 148 87 125 141 142 146 149 157 161 154 153 149 145 148 152 148 145 149 153 156 176 206 207 199 206 201 197 217 234 253 255 232 236 246 252 268 263 274 275 262
280 313 167 282 287 304 277 231 232 106 80 81 106 122 134 143 153 158 159 157 157 157 156 157 157 161 164 167 180 194 214 221 211 214 211 198 213 225 224 237 240 230 239 242 237 230 242 250 255
287 259 301 282 284 274 255 215 136 116 107 102 111 121 136 145 151 156 160 159 162 164 164 162 164 168 171 176 180 198 206 213 206 207 211 211 219 227 217 222 247 234 226 225 223 227 236 236 242
284 312 289 222 288 289 285 258 224 164 170 153 144 145 144 136 140 151 159 157 159 165 167 164 171 177 178 181 192 196 202 215 214 203 207 212 224 227 230 236 239 237 225 224 221 233 241 240 251
203 232 237 255 251 255 293 289 25 109 133 148 153 140 136 136 150 160 160 156 155 159 165 171 177 173 177 189 198 196 203 214 217 218 221 214 225 225 227 232 234 233 229 228 226 229 230 238 251
228 228 204 215 259 240 262 274 60 76 82 96 126 138 137 136 149 158 155 157 161 170 174 180 184 179 186 191 201 203 207 215 221 231 235 225 227 230 229 233 236 231 229 228 228 234 235 235 244
Height
1504 1506 1508 1510 1511 1511 1505 1494 1487 1487 1488 1490 1491 1491 1493 1496 1499 1508 1509 1507 1508 1509 1511 1513 1515 1517 1519 1521 1523 1524 1525 1526 1528 1528 1529 1530 1531 1532 1533 1533 1534 1535 1536 1536 1537 1537 1538 1538 1539
1504 1506 1509 1509 1510 1511 1501 1491 1489 1489 1491 1492 1492 1493 1494 1498 1501 1504 1505 1507 1508 1509 1510 1513 1515 1517 1519 1521 1522 1524 1525 1526 1527 1528 1529 1530 1531 1532 1532 1533 1534 1535 1535 1536 1537 1537 1537 1538 1538
1505 1507 1509 1506 1505 1504 1497 1490 1490 1491 1492 1493 1494 1496 1498 1501 1503 1504 1505 1506 1508 1509 1510 1513 1515 1517 1519 1520 1522 1523 1524 1526 1527 1528 1529 1530 1531 1531 1532 1533 1534 1534 1535 1536 1536 1537 1537 1537 1538
1506 1508 1508 1507 1503 1495 1491 1490 1490 1492 1493 1494 1496 1499 1501 1503 1505 1505 1506 1507 1508 1509 1510 1513 1515 1517 1518 1520 1521 1523 1524 1525 1526 1527 1528 1529 1530 1531 1532 1532 1533 1534 1535 1535 1536 1536 1536 1537 1537
1506 1507 1506 1504 1498 1493 1490 1490 1492 1493 1494 1496 1497 1499 1502 1504 1504 1505 1506 1508 1508 1509 1510 1513 1515 1516 1518 1519 1521 1522 1524 1525 1526 1527 1528 1529 1530 1531 1531 1532 1533 1533 1534 1534 1535 1535 1535 1536 1536
1507 1504 1506 1503 1496 1491 1490 1491 1492 1494 1495 1496 1498 1500 1502 1504 1503 1504 1506 1507 1508 1509 1510 1512 1514 1516 1517 1519 1520 1522 1523 1524 1525 1526 1528 1529 1529 1530 1531 1532 1532 1533 1533 1534 1534 1534 1535 1535 1535
1507 1504 1502 1498 1495 1493 1492 1493 1494 1495 1496 1497 1499 1500 1502 1503 1503 1505 1506 1507 1508 1509 1510 1512 1514 1515 1517 1518 1520 1521 1523 1524 1525 1526 1527 1528 1529 1530 1530 1531 1532 1532 1533 1533 1533 1533 1534 1534 1534
1505 1504 1500 1497 1496 1495 1493 1494 1495 1496 1497 1498 1499 1499 1501 1501 1502 1504 1505 1507 1508 1509 1510 1511 1513 1514 1516 1518 1519 1521 1522 1523 1524 1526 1527 1528 1528 1529 1530 1531 1531 1532 1532 1532 1532 1533 1533 1533 1533
1505 1507 1503 1499 1497 1495 1494 1496 1497 1498 1498 1498 1499 1499 1500 1500 1502 1503 1505 1506 1507 1508 1510 1511 1512 1514 1515 1517 1518 1520 1521 1522 1524 1525 1526 1527 1528 1529 1529 1530 1530 1531 1531 1531 1531 1532 1532 1532 1532
1505 1506 1501 1499 1498 1496 1496 1496 1497 1498 1498 1498 1498 1498 1499 1500 1501 1502 1503 1504 1506 1507 1509 1510 1511 1512 1514 1516 1517 1519 1520 1522 1523 1524 1525 1526 1527 1528 1528 1529 1529 1530 1530 1530 1530 1530 1530 1530 1530
1503 1502 1500 1499 1498 1497 1496 1497 1497 1497 1498 1497 1497 1497 1498 1499 1500 1501 1502 1504 1505 1506 1508 1509 1510 1511 1513 1514 1516 1518 1519 1521 1522 1524 1525 1526 1526 1527 1527 1527 1528 1528 1528 1528 1528 1528 1528 1529 1529
1502 1501 1500 1500 1499 1498 1497 1497 1497 1497 1497 1496 1496 1496 1497 1497 1498 1499 1501 1503 1504 1505 1507 1508 1509 1510 1512 1513 1515 1517 1518 1520 1521 1522 1523 1524 1525 1525 1526 1526 1526 1526 1526 1527 1526 1526 1526 1527 1527
1502 1501 1500 1499 1499 1498 1497 1496 1496 1495 1494 1494 1495 1495 1496 1496 1497 1498 1500 1501 1502 1504 1505 1507 1508 1508 1510 1512 1514 1516 1517 1519 1520 1521 1522 1523 1523 1524 1524 1524 1524 1525 1525 1525 1525 1524 1525 1525 1525
1502 1501 1500 1499 1498 1497 1497 1495 1495 1492 1492 1492 1492 1493 1494 1495 1496 1497 1498 1499 1500 1502 1504 1505 1507 1508 1509 1511 1513 1514 1516 1517 1518 1519 1520 1521 1522 1522 1522 1523 1523 1523 1523 1523 1523 1523 1523 1522 1522
1501 1501 1499 1497 1496 1496 1497 1495 1492 1490 1490 1490 1491 1492 1492 1493 1494 1495 1495 1497 1499 1500 1502 1504 1505 1506 1508 1510 1511 1512 1514 1516 1517 1518 1518 1519 1520 1520 1521 1521 1521 1521 1521 1521 1521 1521 1520 1520 1520
1500 1500 1500 1495 1494 1495 1499 1497 1490 1488 1487 1488 1489 1490 1491 1492 1493 1494 1495 1496 1498 1499 1500 1501 1503 1505 1506 1508 1509 1511 1512 1514 1515 1516 1516 1517 1518 1518 1519 1519 1519 1519 1519 1518 1518 1518 1518 1518 1517
1501 1503 1498 1496 1493 1493 1495 1494 1488 1486 1486 1487 1487 1489 1490 1490 1491 1493 1494 1495 1496 1498 1499 1499 1502 1503 1504 1506 1508 1510 1511 1512 1513 1514 1514 1515 1516 1516 1516 1517 1517 1517 1517 1516 1516 1516 1516 1515 1515
1504 1501 1497 1496 1492 1492 1494 1491 1487 1485 1485 1486 1487 1488 1488 1489 1491 1492 1493 1494 1496 1497 1498 1499 1501 1502 1503 1505 1507 1508 1510 1510 1511 1512 1512 1513 1513 1514 1514 1514 1514 1514 1514 1514 1514 1514 1514 1513 1513
1498 1498 1497 1493 1491 1492 1492 1489 1485 1483 1483 1484 1485 1486 1487 1488 1490 1491 1492 1493 1495 1496 1497 1498 1500 1500 1501 1503 1504 1506 1507 1508 1509 1510 1511 1511 1511 1512 1512 1512 1512 1512 1512 1511 1511 1511 1511 1511 1510
1498 1498 1496 1493 1491 1492 1491 1487 1481 1480 1481 1482 1484 1485 1486 1487 1489 1490 1491 1492 1493 1495 1496 1497 1498 1499 1500 1501 1503 1504 1505 1506 1507 1507 1508 1509 1509 1509 1509 1510 1509 1510 1509 1509 1509 1509 1509 1509 1509
1500 1500 1498 1496 1493 1489 1490 1487 1480 1478 1479 1481 1482 1483 1484 1486 1487 1489 1490 1491 1492 1493 1494 1495 1496 1498 1499 1500 1501 1503 1504 1504 1505 1505 1506 1507 1507 1507 1507 1507 1507 1507 1507 1506 1506 1506 1506 1506 1507
1502 1499 1497 1497 1499 1498 1492 1499 1482 1477 1478 1479 1481 1482 1483 1485 1486 1488 1489 1490 1491 1492 1493 1495 1496 1497 1498 1498 1500 1501 1502 1502 1503 1503 1503 1504 1504 1504 1504 1504 1504 1504 1504 1504 1504 1504 1504 1504 1504
1502 1499 1498 1497 1498 1499 1493 1497 1486 1476 1479 1478 1479 1481 1483 1484 1485 1486 1487 1489 1490 1491 1492 1493 1495 1496 1496 1497 1498 1499 1500 1500 1501 1501 1501 1502 1502 1502 1501 1501 1501 1501 1501 1501 1501 1501 1501 1501 1501
1502 1500 1497 1496 1499 1505 1491 1494 1488 1479 1476 1476 1477 1480 1482 1483 1484 1486 1486 1488 1489 1490 1491 1492 1493 1494 1495 1496 1496 1497 1498 1498 1498 1499 1499 1499 1499 1499 1499 1498 1499 1499 1498 1498 1498 1498 1497 1497 1497
1502 1505 1508 1507 1507 1501 1484 1488 1487 1475 1473 1473 1476 1478 1480 1482 1483 1484 1485 1486 1487 1488 1489 1490 1491 1492 1493 1494 1494 1495 1496 1496 1496 1496 1496 1496 1496 1496 1496 1496 1496 1495 1495 1495 1494 1494 1494 1494 1494
1503 1504 1512 1513 1506 1496 1488 1490 1481 1473 1473 1474 1475 1477 1480 1481 1482 1483 1483 1485 1486 1487 1488 1489 1490 1491 1491 1492 1493 1494 1494 1494 1493 1493 1494 1493 1493 1494 1493 1493 1493 1492 1492 1492 1491 1491 1491 1491 1490
1502 1505 1503 1508 1505 1505 1491 1479 1477 1474 1474 1475 1476 1478 1479 1480 1481 1482 1483 1483 1484 1485 1486 1487 1488 1489 1490 1490 1491 1491 1491 1491 1491 1491 1491 1491 1491 1491 1490 1490 1489 1489 1488 1488 1488 1487 1487 1487 1486
1504 1503 1506 1510 1509 1504 1487 1480 1481 1478 1476 1475 1476 1477 1478 1479 1481 1481 1482 1482 1483 1484 1485 1486 1486 1487 1488 1488 1488 1489 1489 1488 1488 1488 1488 1488 1488 1487 1487 1486 1485 1485 1485 1485 1484 1484 1483 1483 1483
1505 1504 1504 1504 1503 1507 1501 1490 1475 1474 1474 1475 1476 1477 1478 1478 1479 1480 1481 1481 1482 1483 1483 1484 1484 1485 1485 1485 1486 1486 1486 1486 1485 1485 1485 1485 1485 1484 1483 1483 1482 1481 1481 1481 1480 1480 1479 1479 1479
1498 1498 1501 1509 1505 1501 1503 1494 1474 1474 1473 1474 1475 1477 1477 1478 1478 1479 1479 1480 1480 1480 1481 1481 1482 1482 1483 1483 1483 1483 1482 1482 1482 1482 1482 1482 1481 1481 1480 1479 1478 1478 1477 1477 1476 1476 1475 1475 1474